Location: Monrovia
(34.7865°N, 86.7139°W)
Time: 22:05:31
(UTC+00:00)

Cosmos 540 Rocket - Pass Details

Date: 14 July 2020
Orbit: 740 x 754 km, 74.1° (Epoch: 08 August)

Event Time Altitude Azimuth Distance (km) Brightness Sun altitude
Rises 09:33:07 0° 344° (NNW) 3,195 7.0 -13.1°
Reaches altitude 10° 09:35:29 10° 346° (NNW) 2,270 6.3 -12.8°
Maximum altitude 09:40:38 78° 72° (ENE) 769 3.6 -11.9°
Drops below altitude 10° 09:45:46 10° 159° (SSE) 2,264 5.8 -11.1°
Sets 09:48:08 0° 161° (SSE) 3,186 6.5 -10.7°
